Flag for Switzerland Weather past 2 weeks in Geneva, Geneva, Switzerland

Now
94 °F

Extremely hot.


Feels Like: 91 °F
Forecast: 63 / 94 °F
Wind: 12 mph from Southwest

Location: Geneve-Cointrin

Current Time: Jul 1, 2015 at 5:33:50 PM

Latest Report: Jul 1, 2015 at 4:00 PM


Visibility: N/A

Pressure: 29.97 "Hg

Humidity: 27%

Dew point: 54 °F

Location of GenevaLocation

Historic Weather in Geneva — Graph

°F

Geneva temperature yesterday

Maximum temperature yesterday: 88 °F (at 6:00 PM)
Minimum temperature yesterday: 59 °F (at 6:00 AM)
Average temperature yesterday: 74 °F

Past Weeks' High & Low Weather Summary

 TemperatureHumidityPressure
High94 °F (Jul 1, 4:00 PM)94% (Jun 19, 2:00 AM)30.23 "Hg (Jun 19, 2:00 AM)
Low48 °F (Jun 24, 6:00 AM)20% (Jun 26, 4:00 PM)29.78 "Hg (Jun 22, 9:00 PM)
Average68 °F57%30.08 "Hg
* Reported Jun 16 4:00 PM — Jul 1 4:00 PM, Geneva, Weather by CustomWeather, © 2015

Note: Actual official high and low records may vary slightly from our data, if they occured in-between our weather recording intervals... More about our weather records

Advertising

Geneva weather history for previous 24 hours

 ConditionsComfort  
Time TempWeatherWind HumidityBarometerVisibility
4:00 PM
Wed, Jul 1
94 °FExtremely hot.12 mph27%29.97 "HgN/A
3:00 PM91 °FHot.6 mph33%29.98 "HgN/A
2:00 PM90 °FHot.8 mph34%30.00 "HgN/A
1:00 PM86 °FWarm.5 mph42%30.03 "HgN/A
12:00 PM83 °FWarm.2 mph44%30.04 "HgN/A
11:00 AM80 °FWarm.5 mph45%30.06 "HgN/A
10:00 AM77 °FWarm.5 mph47%30.07 "HgN/A
9:00 AM75 °FMild.2 mph55%30.07 "HgN/A
8:00 AM70 °FSunny.3 mph67%30.09 "Hg31 mi
7:00 AM65 °FMild.2 mph71%30.10 "HgN/A
6:00 AM63 °FMild.2 mph76%30.10 "HgN/A
4:00 AM65 °FMild.2 mph69%30.08 "HgN/A
3:00 AM65 °FMild.1 mph72%30.08 "HgN/A
2:00 AM67 °FClear.1 mph71%30.06 "Hg37 mi
1:00 AM67 °FMild.1 mph69%30.06 "HgN/A
12:00 AM69 °FMild.1 mph62%30.05 "HgN/A
11:00 PM
Tue, Jun 30
72 °FPassing clouds.1 mph59%30.04 "Hg37 mi
10:00 PM76 °FMild.2 mph48%30.01 "HgN/A
9:00 PM79 °FWarm.3 mph42%29.99 "HgN/A
8:00 PM86 °FPassing clouds.6 mph28%29.97 "Hg43 mi
6:00 PM88 °FHot.6 mph27%29.96 "HgN/A
Weather by CustomWeather, © 2015

See weather overviewHow to use our weather pages